Location: Bosmont
(49.7318°N, 3.8587°E)
Time: 00:05:00
(UTC+00:00)

Lacrosse 5 - Pass Details

Date: 08 February 2023
Orbit: 714 x 724 km, 57.0° (Epoch: 09 March)

Event Time Altitude Azimuth Distance (km) Brightness Sun altitude
Rises 17:26:05 0° 243° (WSW) 3,129 7.3 -6.2°
Reaches altitude 10° 17:28:28 10° 245° (WSW) 2,211 6.1 -6.5°
Maximum altitude 17:33:33 72° 330° (NNW) 764 2.1 -7.3°
Drops below altitude 10° 17:38:41 10° 55° (NE) 2,222 3.8 -8.1°
Enters shadow 17:39:02 - 56° (NE) 2,354 3.9 -8.2°
